• In Russia
  • List of Countries
  • For 7 days
  • Water Temperature
  • Satellite Maps
  • Weather Map
  • Weather Widgets
  • user-avatar
    Login

    Hourly Weather Torokbalint

    Today, 20 October, Friday

    Time Temperature Precipitation Wind Pressure Humidity
    00:00 +12°C° 0 mm 1 mps 745 mmHg 77%
    01:00 +12°C° 0 mm 1 mps 745 mmHg 78%
    02:00 +12°C° 0 mm 1 mps 745 mmHg 79%
    03:00 +10°C° 0 mm 0 mps 745 mmHg 80%
    04:00 +10°C° 0 mm 0 mps 745 mmHg 82%
    05:00 +10°C° 0 mm 0 mps 745 mmHg 81%
    06:00 +10°C° 0 mm 0 mps 745 mmHg 80%
    07:00 +10°C° 0 mm 0 mps 745 mmHg 80%
    08:00 +12°C° 0 mm 0 mps 746 mmHg 72%
    09:00 +15°C° 0 mm 1 mps 746 mmHg 63%
    10:00 +18°C° 0 mm 1 mps 746 mmHg 55%
    11:00 +20°C° 0 mm 1 mps 746 mmHg 50%
    12:00 +21°C° 0 mm 1 mps 746 mmHg 45%
    13:00 +21°C° 0 mm 2 mps 746 mmHg 40%
    14:00 +22°C° 0 mm 1 mps 746 mmHg 41%
    15:00 +21°C° 0 mm 1 mps 746 mmHg 42%
    16:00 +21°C° 0 mm 1 mps 745 mmHg 42%
    17:00 +20°C° 0 mm 1 mps 746 mmHg 45%
    18:00 +18°C° 0 mm 1 mps 746 mmHg 48%
    19:00 +16°C° 0 mm 1 mps 746 mmHg 51%
    20:00 +16°C° 0 mm 1 mps 746 mmHg 53%
    21:00 +15°C° 0 mm 1 mps 746 mmHg 55%
    22:00 +15°C° 0 mm 1 mps 746 mmHg 57%
    23:00 +14°C° 0 mm 1 mps 746 mmHg 59%

    Tomorrow, 21 October, Saturday

    Time Temperature Precipitation Wind Pressure Humidity
    00:00 +14°C° 0 mm 1 mps 747 mmHg 61%
    01:00 +13°C° 0 mm 1 mps 747 mmHg 63%
    02:00 +13°C° 0 mm 1 mps 746 mmHg 65%
    03:00 +13°C° 0 mm 1 mps 746 mmHg 67%
    04:00 +12°C° 0 mm 1 mps 746 mmHg 69%
    05:00 +12°C° 0 mm 1 mps 746 mmHg 70%
    06:00 +12°C° 0 mm 1 mps 746 mmHg 71%
    07:00 +12°C° 0 mm 1 mps 746 mmHg 72%
    08:00 +14°C° 0 mm 1 mps 747 mmHg 66%
    09:00 +15°C° 0 mm 1 mps 747 mmHg 60%
    10:00 +18°C° 0 mm 1 mps 747 mmHg 54%
    11:00 +19°C° 0 mm 1 mps 746 mmHg 52%
    12:00 +19°C° 0 mm 1 mps 746 mmHg 49%
    13:00 +20°C° 0 mm 1 mps 746 mmHg 47%
    14:00 +20°C° 0 mm 1 mps 746 mmHg 49%
    15:00 +20°C° 0 mm 1 mps 745 mmHg 51%
    16:00 +19°C° 0 mm 1 mps 745 mmHg 53%
    17:00 +18°C° 0 mm 1 mps 745 mmHg 56%
    18:00 +15°C° 0 mm 0 mps 745 mmHg 59%
    19:00 +14°C° 0 mm 0 mps 745 mmHg 62%
    20:00 +14°C° 0 mm 0 mps 745 mmHg 63%
    21:00 +13°C° 0 mm 0 mps 745 mmHg 65%
    22:00 +13°C° 0 mm 0 mps 745 mmHg 66%
    23:00 +13°C° 0 mm 0 mps 745 mmHg 67%

    Day after tomorrow, 22 October, Sunday

    Time Temperature Precipitation Wind Pressure Humidity
    00:00 +13°C° 0 mm 0 mps 745 mmHg 68%
    01:00 +12°C° 0 mm 0 mps 745 mmHg 70%
    02:00 +12°C° 0 mm 0 mps 745 mmHg 71%
    03:00 +12°C° 0 mm 0 mps 744 mmHg 72%
    04:00 +13°C° 0 mm 1 mps 744 mmHg 73%
    05:00 +13°C° 0 mm 1 mps 744 mmHg 73%
    06:00 +12°C° 0 mm 0 mps 744 mmHg 73%
    07:00 +12°C° 0 mm 0 mps 744 mmHg 74%
    08:00 +14°C° 0 mm 1 mps 744 mmHg 68%
    09:00 +15°C° 0 mm 1 mps 744 mmHg 63%
    10:00 +18°C° 0 mm 1 mps 744 mmHg 58%
    11:00 +19°C° 0 mm 1 mps 744 mmHg 55%
    12:00 +19°C° 0 mm 1 mps 744 mmHg 53%
    13:00 +20°C° 0 mm 1 mps 743 mmHg 50%
    14:00 +20°C° 0 mm 1 mps 743 mmHg 52%
    15:00 +19°C° 0 mm 1 mps 742 mmHg 54%
    16:00 +19°C° 0 mm 1 mps 742 mmHg 56%
    17:00 +17°C° 0.2 mm 2 mps 742 mmHg 59%
    18:00 +16°C° 0.2 mm 2 mps 741 mmHg 63%
    19:00 +15°C° 0.2 mm 2 mps 741 mmHg 66%
    20:00 +15°C° 1 mm 2 mps 741 mmHg 70%
    21:00 +13°C° 1 mm 3 mps 741 mmHg 75%
    22:00 +13°C° 1 mm 3 mps 741 mmHg 79%
    23:00 +13°C° 1 mm 3 mps 740 mmHg 80%

    23 October, Monday

    Time Temperature Precipitation Wind Pressure Humidity
    00:00 +13°C° 1 mm 3 mps 740 mmHg 82%
    01:00 +12°C° 1 mm 3 mps 740 mmHg 83%
    02:00 +12°C° 2.5 mm 3 mps 740 mmHg 85%
    03:00 +12°C° 2.5 mm 4 mps 739 mmHg 87%
    04:00 +12°C° 2.5 mm 4 mps 739 mmHg 88%
    05:00 +11°C° 2.7 mm 4 mps 739 mmHg 89%
    06:00 +11°C° 2.7 mm 4 mps 739 mmHg 89%
    07:00 +10°C° 2.7 mm 5 mps 739 mmHg 89%
    08:00 +10°C° 2.3 mm 5 mps 739 mmHg 89%
    09:00 +9°C° 2.3 mm 5 mps 739 mmHg 88%
    10:00 +9°C° 2.3 mm 6 mps 739 mmHg 88%
    11:00 +9°C° 1.5 mm 6 mps 739 mmHg 88%
    12:00 +9°C° 1.5 mm 5 mps 739 mmHg 88%
    13:00 +9°C° 1.5 mm 5 mps 739 mmHg 88%
    14:00 +9°C° 1.4 mm 6 mps 739 mmHg 87%
    15:00 +9°C° 1.4 mm 6 mps 740 mmHg 87%
    16:00 +9°C° 1.4 mm 6 mps 740 mmHg 87%
    17:00 +9°C° 1.3 mm 6 mps 740 mmHg 87%
    18:00 +9°C° 1.3 mm 6 mps 741 mmHg 87%
    19:00 +9°C° 1.3 mm 6 mps 741 mmHg 87%
    20:00 +9°C° 1.1 mm 6 mps 741 mmHg 87%
    21:00 +9°C° 1.1 mm 6 mps 742 mmHg 87%
    22:00 +8°C° 1.1 mm 6 mps 742 mmHg 87%
    23:00 +8°C° 0.9 mm 6 mps 742 mmHg 87%

    24 October, Tuesday

    Time Temperature Precipitation Wind Pressure Humidity
    00:00 +8°C° 0.9 mm 6 mps 743 mmHg 86%
    01:00 +8°C° 0.9 mm 6 mps 743 mmHg 86%
    02:00 +8°C° 0.4 mm 6 mps 743 mmHg 86%
    03:00 +8°C° 0.4 mm 6 mps 744 mmHg 85%
    04:00 +8°C° 0.4 mm 6 mps 744 mmHg 85%
    05:00 +9°C° 0.2 mm 6 mps 744 mmHg 85%
    06:00 +9°C° 0.2 mm 6 mps 745 mmHg 84%
    07:00 +9°C° 0.2 mm 6 mps 745 mmHg 84%
    08:00 +9°C° 0.3 mm 6 mps 745 mmHg 83%
    09:00 +9°C° 0.3 mm 6 mps 746 mmHg 82%
    10:00 +10°C° 0.3 mm 6 mps 746 mmHg 81%
    11:00 +10°C° 0.3 mm 6 mps 746 mmHg 80%
    12:00 +10°C° 0.3 mm 6 mps 746 mmHg 79%
    13:00 +10°C° 0.3 mm 6 mps 746 mmHg 78%
    14:00 +10°C° 0.3 mm 5 mps 747 mmHg 78%
    15:00 +10°C° 0.3 mm 5 mps 747 mmHg 79%
    16:00 +10°C° 0.3 mm 5 mps 747 mmHg 79%
    17:00 +10°C° 0.3 mm 5 mps 747 mmHg 80%
    18:00 +10°C° 0.3 mm 4 mps 747 mmHg 81%
    19:00 +10°C° 0.3 mm 4 mps 748 mmHg 82%
    20:00 +10°C° 0.2 mm 4 mps 748 mmHg 82%
    21:00 +8°C° 0.2 mm 4 mps 748 mmHg 83%
    22:00 +9°C° 0.2 mm 3 mps 748 mmHg 83%
    23:00 +9°C° 0 mm 3 mps 749 mmHg 84%

    25 October, Wednesday

    Time Temperature Precipitation Wind Pressure Humidity
    00:00 +8°C° 0 mm 3 mps 749 mmHg 84%
    01:00 +8°C° 0 mm 3 mps 749 mmHg 85%
    02:00 +8°C° 0 mm 3 mps 749 mmHg 85%
    03:00 +8°C° 0 mm 3 mps 749 mmHg 86%
    04:00 +8°C° 0 mm 3 mps 749 mmHg 86%
    05:00 +8°C° 0 mm 3 mps 750 mmHg 86%
    06:00 +8°C° 0 mm 3 mps 750 mmHg 86%
    07:00 +8°C° 0 mm 3 mps 750 mmHg 85%
    08:00 +9°C° 0 mm 3 mps 751 mmHg 80%
    09:00 +10°C° 0 mm 3 mps 752 mmHg 75%
    10:00 +12°C° 0 mm 3 mps 752 mmHg 70%
    11:00 +13°C° 0 mm 3 mps 752 mmHg 66%
    12:00 +14°C° 0 mm 3 mps 752 mmHg 62%
    13:00 +16°C° 0 mm 3 mps 752 mmHg 57%
    14:00 +15°C° 0 mm 2 mps 752 mmHg 60%
    15:00 +15°C° 0 mm 2 mps 752 mmHg 62%
    16:00 +15°C° 0 mm 2 mps 753 mmHg 64%
    17:00 +14°C° 0 mm 2 mps 753 mmHg 68%
    18:00 +13°C° 0 mm 2 mps 753 mmHg 72%
    19:00 +12°C° 0 mm 2 mps 754 mmHg 76%
    20:00 +11°C° 0 mm 1 mps 754 mmHg 77%
    21:00 +11°C° 0 mm 1 mps 754 mmHg 78%
    22:00 +10°C° 0 mm 1 mps 755 mmHg 79%
    23:00 +10°C° 0 mm 1 mps 755 mmHg 79%
    Show more